Home > Time Zones > World Clock > Weather > Italy > Milan > Past weeks

Flag for Italy Weather past 2 weeks in Milan, Italy

Now
64 °F

Scattered clouds.


Feels Like: 64 °F
Forecast: 55 / 64 °F
Wind: 3 mph from East

Location: Milan / Linate

Current Time: Apr 26, 2015 at 7:32:40 PM

Latest Report: Apr 26, 2015 at 6:50 PM


Visibility: N/A

Pressure: 29.83 "Hg

Humidity: 68%

Dew point: 54 °F

Location of MilanLocation

Historic Weather in Milan — Graph

°F

Milan temperature yesterday

Maximum temperature yesterday: 64 °F (at 3:50 PM)
Minimum temperature yesterday: 55 °F (at 3:20 AM)
Average temperature yesterday: 59 °F

Past Weeks' High & Low Weather Summary

 TemperatureHumidityPressure
High81 °F (Apr 22, 5:20 PM)100% (Apr 13, 6:50 AM)30.45 "Hg (Apr 13, 6:50 AM)
Low41 °F (Apr 20, 5:50 AM)20% (Apr 22, 5:20 PM)29.83 "Hg (Apr 26, 6:20 PM)
Average61 °F61%30.10 "Hg
* Reported Apr 11 6:20 PM — Apr 26 6:20 PM, Milan, Weather by CustomWeather, © 2015

Note: Actual official high and low records may vary slightly from our data, if they occured in-between our weather recording intervals... More about our weather records

Advertising

Milan weather history for previous 24 hours

 ConditionsComfort  
Time TempWeatherWind HumidityBarometerVisibility
6:20 PM
Sun, Apr 26
64 °FPartly sunny.5 mph73%29.83 "HgN/A
5:50 PM64 °FScattered clouds.3 mph73%29.86 "HgN/A
5:20 PM66 °FScattered clouds.2 mph64%29.86 "HgN/A
4:50 PM66 °FPartly sunny.2 mph64%29.86 "HgN/A
4:20 PM64 °FPartly sunny.2 mph68%29.89 "HgN/A
3:50 PM64 °FBroken clouds.5 mph68%29.89 "Hg5 mi
3:20 PM64 °FBroken clouds.3 mph68%29.92 "HgN/A
2:50 PM64 °FBroken clouds.5 mph64%29.92 "HgN/A
2:20 PM64 °FBroken clouds.5 mph68%29.92 "HgN/A
1:50 PM64 °FBroken clouds.2 mph68%29.92 "HgN/A
1:20 PM63 °FBroken clouds.2 mph77%29.92 "Hg5 mi
12:50 PM64 °FBroken clouds.2 mph73%29.95 "Hg4 mi
12:20 PM64 °FFog.1 mph73%29.95 "Hg3 mi
11:50 AM61 °FFog.2 mph83%29.95 "Hg3 mi
11:20 AM61 °FFog.2 mph83%29.95 "Hg3 mi
10:50 AM61 °FFog.2 mph83%29.95 "Hg3 mi
10:20 AM59 °FFog.3 mph88%29.95 "Hg3 mi
9:50 AM59 °FFog.2 mph88%29.95 "Hg3 mi
9:20 AM59 °FFog.3 mph88%29.95 "Hg3 mi
8:50 AM59 °FFog.3 mph88%29.95 "Hg3 mi
8:20 AM57 °FFog.3 mph94%29.95 "Hg3 mi
7:50 AM57 °FFog.2 mph94%29.95 "Hg3 mi
7:20 AM57 °FFog.3 mph94%29.95 "Hg3 mi
6:50 AM57 °FFog.No wind94%29.95 "Hg3 mi
6:20 AM57 °FFog.2 mph94%29.95 "Hg3 mi
5:50 AM57 °FPartly cloudy.3 mph94%29.92 "Hg5 mi
5:20 AM57 °FLight rain. Partly cloudy.3 mph94%29.95 "Hg5 mi
4:50 AM59 °FPassing clouds.3 mph82%29.95 "Hg5 mi
4:20 AM57 °FPassing clouds.3 mph94%29.95 "Hg5 mi
3:50 AM57 °FPartly cloudy.2 mph94%29.95 "Hg5 mi
3:20 AM59 °FPartly cloudy.2 mph82%29.95 "Hg5 mi
2:50 AM59 °FPartly cloudy.1 mph82%29.98 "Hg5 mi
2:20 AM59 °FPartly cloudy.3 mph88%29.98 "Hg5 mi
1:50 AM59 °FPartly cloudy.3 mph82%29.98 "Hg5 mi
1:20 AM59 °FPartly cloudy.3 mph88%29.98 "Hg5 mi
12:50 AM59 °FPartly cloudy.2 mph88%29.98 "Hg5 mi
12:20 AM59 °FPartly cloudy.2 mph88%30.01 "Hg5 mi
11:50 PM
Sat, Apr 25
59 °FPartly cloudy.3 mph88%29.98 "Hg5 mi
10:50 PM61 °FPartly cloudy.2 mph83%30.01 "HgN/A
10:20 PM61 °FPartly cloudy.3 mph83%30.01 "HgN/A
9:50 PM61 °FPartly cloudy.3 mph83%30.01 "HgN/A
9:20 PM61 °FBroken clouds.2 mph83%30.01 "HgN/A
8:50 PM61 °FBroken clouds.2 mph83%29.98 "HgN/A
8:20 PM59 °FBroken clouds.3 mph88%29.98 "Hg5 mi
7:50 PM61 °FBroken clouds.5 mph83%29.98 "Hg5 mi
7:20 PM61 °FDrizzle. Broken clouds.5 mph83%29.98 "HgN/A
Weather by CustomWeather, © 2015

See weather overviewHow to use our weather pages